Regional Weather Roundup
Issued by NWS

Home | Current Version | Previous Version | Graphics & Text | Print | Product List | Glossary On
Versions: 1 2 3 4 5 6 7 8 9 10 11 12 13 14 15 16 17 18 19 20 21 22 23 24 25 26 27 28 29 30 31 32 33 34 35 36 37 38 39 40 41 42 43 44 45 46 47 48 49 50
574
ASUS45 KBOU 150310
RWRCO

WEATHER ROUNDUP FOR COLORADO
NATIONAL WEATHER SERVICE DENVER/BOULDER CO
800 PM MST THU DEC 14 2017

NOTE: "FAIR" INDICATES FEW OR NO CLOUDS BELOW 12000 FEET WITH NO
SIGNIFICANT WEATHER AND/OR OBSTRUCTIONS TO VISIBILITY.

COZ001>005-013-030-031-150400-
...NORTHWEST COLORADO...

CITY           SKY/WX    TMP DP  RH WIND       PRES   REMARKS
CRAIG          FAIR      10   6  84 SE3       30.35S
HAYDEN         FAIR      21  15  78 E3        30.36R
MEEKER         FAIR      17  12  80 CALM      30.36R
RABBIT EARS PA MOCLDY    12   9  85 W10G21    30.25R FOG     WCI  -1
STEAMBOAT SPGS FAIR      19  13  77 CALM      30.34S
WALDEN         FAIR       7   1  78 SE8       30.31S WCI  -6
$$

COZ006>008-011-150400-
...WEST CENTRAL VALLEYS...

CITY           SKY/WX    TMP DP  RH WIND       PRES   REMARKS
GRAND JUNCTION FAIR      36  16  44 NE12      30.35R
MONTROSE       FAIR      26  17  68 SE8       30.37R WCI  18
EAGLE          FAIR      17   9  70 S3        30.39R
RIFLE          FAIR      23   8  52 SE6       30.37R WCI  16
DELTA          FAIR      32  11  42 NE6       30.35R WCI  26
NUCLA          FAIR      32   9  37 E12       30.35R WCI  23
$$

COZ017>023-064>068-150400-
...SOUTHWEST COLORADO...

CITY           SKY/WX    TMP DP  RH WIND       PRES   REMARKS
DURANGO        FAIR      28  22  78 NE6       30.22R WCI  22
CORTEZ         FAIR      34  11  38 N7        30.25S WCI  28
PAGOSA SPRINGS FAIR      27  21  80 CALM      30.24R
TELLURIDE      FAIR      24  10  55 CALM      30.31R
WOLF CREEK PAS FAIR      12   0  57 NW7       30.27R WCI   2
$$

COZ009-010-012-014-032>034-037-058>063-150400-
...CENTRAL COLORADO...

CITY           SKY/WX    TMP DP  RH WIND       PRES   REMARKS
ASPEN          FAIR      15   5  64 S5        30.32R WCI   8
BUENA VISTA    FAIR      24   6  46 NW26G37   30.23R WCI   8
COPPER MTN     NOT AVBL
BERTHOUD PASS  CLOUDY     3  -8  60 NW22G28   30.19S WCI -19
COTTONWOOD PAS FAIR      27   5  39 SW16      30.21S WCI  14
GUNNISON       FAIR      22   9  57 CALM      30.30R
KREMMLING      FAIR      18  10  73 CALM      30.34R
LEADVILLE      FAIR       8   2  76 NW3       30.27R
MONARCH PASS   FAIR      10   3  72 W16       30.32R WCI  -7
SALIDA         FAIR      31   4  31 NW16G26   30.33S WCI  20
SUNLIGHT       FAIR      10   5  79 N5        30.34R WCI   2
WILKERSON PASS FAIR      10   0  61 N9G17     30.21R WCI  -2
$$

COZ069>075-150400-
...SAN LUIS VALLEY/SANGRE DE CRISTO MOUNTAINS...

CITY           SKY/WX    TMP DP  RH WIND       PRES   REMARKS
ALAMOSA        FAIR      18  15  88 NW9       30.23R WCI   7
DEL NORTE      FAIR      21  13  71 NW5       30.25R WCI  15
LA VETA PASS   FAIR      18  12  79 W10G22      N/A  WCI   6
SAGUACHE       FAIR      21  10  63 NW7       30.25R WCI  13
$$

COZ035-036-038>040-150400-
...NORTHERN COLORADO FRONT RANGE...

CITY           SKY/WX    TMP DP  RH WIND       PRES   REMARKS
DENVER INTL AP FAIR      22  15  75 S6        30.24S WCI  14
DMNS CITY PARK NOT AVBL
AURORA         CLEAR     21  17  85 S8        30.24S WCI  12
FRONT RANGE AP CLEAR     23  19  86 S6        30.25F WCI  16
ERIE MUNI ARPT FAIR      26  20  79 SW5       30.29F WCI  20
BOULDER MUN AP FAIR      30  21  69 SW5       30.23F WCI  25
CENTENNIAL     FAIR      24  18  77 S5        30.24S WCI  18
BROOMFIELD     PTCLDY    28  23  80 S6        30.24S WCI  22
FORT COLLINS   FAIR      28  22  78 SW12      30.23F WCI  18
LONGMONT       FAIR      26  21  81 SW5       30.25F WCI  20
$$

COZ041-046-047-076>085-087-088-150400-
...PIKES PEAK/PALMER DIVIDE AND SOUTHERN FOOTHILLS...

CITY           SKY/WX    TMP DP  RH WIND       PRES   REMARKS
COLO. SPRINGS  FAIR      27  19  72 CALM      30.26R
A. F. ACADEMY  FAIR      22  17  83 CALM      30.23R
SCHRIEVER AFB  FAIR      25  16  70 NW7       30.26R WCI  17
CHEYENNE MTN   FAIR      25  22  89 CALM      30.18S
ELLICOTT         N/A    N/A N/A N/A N6        30.24R
FALCON         FAIR      20  17  88 NW8       30.24R WCI  10
FORT CARSON    FAIR      24  21  90 CALM      30.24S
LIMON          FAIR      18  16  92 NW10      30.24R WCI   6
MONUMENT HILL  FAIR      14  12  92 W7        30.24S WCI   4
CANON CITY     CLOUDY    32  32 100 CALM      30.28R
WALSENBURG     CLOUDY    30  28  93 CALM      30.27S
TRINIDAD       CLOUDY    30  28  92 CALM      30.28R
$$

COZ042>045-048>051-090-091-150400-
...NORTHEAST COLORADO...

CITY           SKY/WX    TMP DP  RH WIND       PRES   REMARKS
GREELEY ARPT   FAIR      25  16  68 SE3       30.24S
AKRON          FAIR      19  15  84 NW6       30.23S WCI  11
BURLINGTON     FAIR      18  13  80 NW8       30.24R WCI   8
WRAY           FAIR      27  21  80 W9        30.24S WCI  17
YUMA           FAIR      23  14  68 NW8       30.24S WCI  14
STERLING       FAIR      23  19  86 NW9       30.23F WCI  13
HOLYOKE        FAIR      30  23  74 W6        30.23S WCI  24
FORT MORGAN    FAIR      23  14  67 NW6       30.25S WCI  16
$$

COZ086-089-092>099-150400-
...SOUTHEAST COLORADO...

CITY           SKY/WX    TMP DP  RH WIND       PRES   REMARKS
PUEBLO         FAIR      26  21  81 CALM      30.29R
LA JUNTA       FAIR      28  22  78 W10       30.29R WCI  19
LAMAR          FAIR      23  19  85 W7        30.27R WCI  15
SPRINGFIELD      N/A     21  20  96 NW9       30.26R WCI  11
$$




USA.gov is the U.S. government's official web portal to all federal, state and local government web resources and services.